Peachtree City, GA

7:46 AM EDT on June 27, 2017 (GMT -0400)
Peachtree City-Falcon

Weather History for KFFC - October, 2013

Change the Weather History Date:

Wednesday, October 30, 2013

  Actual Average Record
Temperature  
Mean Temperature 65 °F 57 °F  
Max Temperature 79 °F 71 °F 85 °F (2016)
Min Temperature 51 °F 44 °F 27 °F (2001)
Degree Days  
Heating Degree Days 0 8  
Month to date heating degree days 111 145  
Since 1 July heating degree days 112 158  
Cooling Degree Days 0 1  
Month to date cooling degree days 50 44  
Year to date cooling degree days 1551 1652  
Growing Degree Days 14 (Base 50)    
Moisture  
Dew Point 56 °F    
Average Humidity 73    
Maximum Humidity 100    
Minimum Humidity 45    
Precipitation  
Precipitation 0.00 in 0.08 in 0.01 in (2003)
Month to date precipitation 1.61 3.34  
Year to date precipitation 41.91  
Snow  
Snow 0.00 in - - ()
Month to date snowfall 0.0  
Since 1 July snowfall 0.0  
Since 1 September snowfall 0.0  
Snow Depth 0.00 in    
Sea Level Pressure  
Sea Level Pressure 30.25 in    
Wind  
Wind Speed 0 mph (North)    
Max Wind Speed 9 mph    
Max Gust Speed 14 mph    
Visibility 7 miles    
Events      
T = Trace of Precipitation, MM = Missing Value Source: NWS Daily Summary

Daily Weather History Graph

Daily Weather History Graph

Search for Another Location

Airport or City:

Trip Planner

Search our weather history database for the weather conditions in past years. The results will help you decide how hot, cold, wet, or windy it might be!

Date:

Astronomy

Oct. 30, 2013 Rise Set
Actual Time 7:55 AM EDT 6:48 PM EDT
Civil Twilight 7:29 AM EDT 7:13 PM EDT
Nautical Twilight 7:00 AM EDT 7:42 PM EDT
Astronomical Twilight 6:31 AM EDT 8:11 PM EDT
Moon 3:55 AM EDT (10/30) 4:22 PM EDT (10/30)
Length of Visible Light 11h 43m
Length of Day
10h 52m
Waning Crescent, 17% of the Moon is Illuminated
Oct 30
Waning Crescent
Nov 3
New
Nov 10
First Quarter
Nov 17
Full
Nov 25
Last Quarter

Hourly Weather History & Observations

Time (EDT) Temp. Dew Point Humidity Pressure Visibility Wind Dir Wind Speed Gust Speed Precip Events Conditions
12:53 AM 55.0 °F 54.0 °F 96% 30.27 in 5.0 mi Calm Calm - N/A   Clear
1:53 AM 55.0 °F 54.0 °F 96% 30.27 in 5.0 mi Calm Calm - N/A   Clear
2:53 AM 54.0 °F 53.1 °F 97% 30.28 in 4.0 mi Calm Calm - N/A   Clear
3:53 AM 53.1 °F 53.1 °F 100% 30.27 in 4.0 mi Calm Calm - N/A   Clear
4:53 AM 52.0 °F 51.1 °F 97% 30.26 in 5.0 mi Calm Calm - N/A   Clear
5:53 AM 52.0 °F 51.1 °F 97% 30.28 in 5.0 mi Calm Calm - N/A   Clear
6:53 AM 52.0 °F 51.1 °F 97% 30.29 in 5.0 mi Calm Calm - N/A   Clear
7:53 AM 51.1 °F 50.0 °F 96% 30.31 in 5.0 mi Calm Calm - N/A   Clear
8:53 AM 53.1 °F 52.0 °F 96% 30.32 in 3.0 mi Calm Calm - N/A   Clear
9:53 AM 57.9 °F 55.9 °F 93% 30.32 in 5.0 mi Calm Calm - N/A   Clear
10:53 AM 64.9 °F 57.9 °F 78% 30.32 in 9.0 mi Calm Calm - N/A   Clear
11:53 AM 69.1 °F 57.0 °F 65% 30.31 in 10.0 mi Calm Calm - N/A   Clear
12:53 PM 73.9 °F 57.0 °F 55% 30.28 in 10.0 mi Calm Calm - N/A   Clear
1:53 PM 77.0 °F 55.9 °F 48% 30.25 in 10.0 mi Calm Calm - N/A   Clear
2:53 PM 78.1 °F 55.9 °F 46% 30.22 in 10.0 mi Calm Calm - N/A   Mostly Cloudy
3:53 PM 75.9 °F 55.0 °F 48% 30.20 in 10.0 mi Variable 3.5 mph - N/A   Partly Cloudy
4:53 PM 75.9 °F 55.9 °F 50% 30.19 in 10.0 mi Calm Calm - N/A   Clear
5:53 PM 73.0 °F 63.0 °F 71% 30.18 in 10.0 mi Calm Calm - N/A   Clear
6:53 PM 64.9 °F 62.1 °F 90% 30.18 in 10.0 mi Calm Calm - N/A   Clear
7:53 PM 63.0 °F 61.0 °F 93% 30.18 in 9.0 mi Calm Calm - N/A   Clear
8:53 PM 61.0 °F 59.0 °F 93% 30.19 in 8.0 mi Calm Calm - N/A   Clear
9:53 PM 59.0 °F 57.0 °F 93% 30.20 in 7.0 mi Calm Calm - N/A   Clear
10:53 PM 57.0 °F 55.9 °F 96% 30.21 in 7.0 mi Calm Calm - N/A   Clear
11:53 PM 55.9 °F 55.0 °F 97% 30.20 in 7.0 mi Calm Calm - N/A   Clear